Location: Dos Palmas
(32.4468°N, 116.8732°W)
Time: 00:00:58
(UTC+00:00)

Meteor 1-24 Rocket - Pass Details

Date: 29 October 2021
Orbit: 790 x 927 km, 81.3° (Epoch: 30 November)

Event Time Altitude Azimuth Distance (km) Brightness Sun altitude
Rises 11:44:09 0° 160° (SSE) 3,278 7.0 -29.7°
Reaches altitude 10° 11:46:45 10° 149° (SSE) 2,361 6.3 -29.2°
Maximum altitude 11:51:18 30° 90° (E) 1,428 5.5 -28.2°
Drops below altitude 10° 11:55:58 10° 31° (NNE) 2,428 6.4 -27.2°
Sets 11:58:40 0° 21° (NNE) 3,387 7.1 -26.7°
